カタログに戻る

INTELSAT 3R

PAS 3R

運用中通信GEO
NORAD 23764·PAYLOAD·🇺🇸 United States

打ち上げ Jan 12, 1996 から Guiana Space Centre

Loading…

TLE

最新Source: Space-Track

元期: Sep 14, 2026, 12:16 UTC

1 23764U 96002A   26257.51126198  .00000014  00000-0  00000-0 0  9999
2 23764  11.9112  36.0590 0010385 268.7560 270.1981  0.99087683111677

AllMySatでINTELSAT 3Rをリアルタイム追跡

Download on the App Store